Content
SEND FEEDBACK

Daily
Averages
Monthly
Summary
United States of America

MALDEN, MISSOURI


Home > North America > United States > Missouri
Elevation: 295 feet     Latitude: 36 36N     Longitude: 089 59W

WEATHER
 
SELECT A DAY
Number of Records: 207,958;   Date Range: 1/1/95 - 9/20/14
 
SHARE

PRINT THIS DATA

[ ← Previous Day ]
WEATHER ALMANAC - OCTOBER 13, 2013
[ Next Day → ]
[ °C ]   °F
Weather ElementAverageHighLow
Temperature62.8 °F77 °F (2:53 pm)52 °F (11:53 pm)
Dewpoint49 °F57.2 °F (12:22 am)44.1 °F (4:53 pm)
Humidity64.6 %94 % (1:03 am)33 % (3:53 pm)
Barometer30.25 in30.33 in (9:53 am)30.17 in (12:22 am)
Wind Speed5.8 mph12.7 mph (10:53 am)
Wind Gust18.4 mph (1:53 pm)
Weather ElementAverage
Visibility8.3 mi
Wind DirectionSE (134.6 °)

Weather ElementTotal
Precipitation---
Heating Degree Days0.5 (Base 65)
Growing Degree Days14.5 (Base 50)
Averaged from 28 records on October 13, 2013
WEATHER CONDITIONS BREAKOUT
WIND DIRECTION BREAKOUT
WEATHER BY HOUR - OCTOBER 13, 2013
[ °C ]   °F
Local TimeTemperatureDewpointHumidityBarometerVisibilityWind DirectionWind SpeedGust SpeedPrecipitationEventsConditions
12:22 AM60.8 °F57.2 °F88 %30.17 in0.2 miCalmFogFog
12:53 AM59.0 °F57.0 °F93 %30.17 in0.2 miNNW (340°)3.5 mphFogFog
1:01 AM59.0 °F55.4 °F88 %30.18 in0.8 miNNW (330°)4.6 mphMist
1:03 AM57.2 °F55.4 °F94 %30.18 in1.2 miNNW (330°)4.6 mphScattered Clouds
1:11 AM59.0 °F55.4 °F88 %30.18 in3.0 miNNW (340°)4.6 mphPartly Cloudy
1:53 AM59.0 °F55.9 °F90 %30.19 in8.0 miNNE (20°)3.5 mphClear
2:53 AM57.0 °F54.0 °F89 %30.20 in10.0 miNNW (330°)4.6 mphClear
3:53 AM57.0 °F51.1 °F81 %30.21 in10.0 miNorth (360°)4.6 mphClear
4:53 AM57.9 °F48.9 °F72 %30.22 in10.0 miNNE (20°)8.1 mphMostly Cloudy
5:53 AM57.0 °F46.0 °F67 %30.25 in10.0 miNNE (30°)6.9 mphClear
6:53 AM55.0 °F46.0 °F72 %30.27 in10.0 miNorth (10°)5.8 mphClear
7:53 AM57.9 °F46.0 °F65 %30.29 in10.0 miNorth (10°)4.6 mphClear
8:53 AM62.1 °F45.0 °F53 %30.30 in10.0 miNNE (30°)10.4 mph16.1 mphClear
9:53 AM64.9 °F46.0 °F50 %30.33 in10.0 miNNE (30°)9.2 mphClear
10:53 AM69.1 °F46.0 °F44 %30.33 in10.0 miNE (40°)12.7 mphClear
11:53 AM72.0 °F46.0 °F40 %30.32 in10.0 miNE (50°)9.2 mphClear
12:53 PM73.9 °F45.0 °F35 %30.30 in10.0 miNorth (360°)10.4 mph17.3 mphClear
1:53 PM75.0 °F45.0 °F34 %30.28 in10.0 miNNE (30°)8.1 mph18.4 mphClear
2:53 PM77.0 °F46.9 °F34 %30.26 in10.0 miNNE (20°)8.1 mphClear
3:53 PM75.9 °F45.0 °F33 %30.25 in10.0 miNNE (20°)9.2 mphClear
4:53 PM73.9 °F44.1 °F34 %30.25 in10.0 miNNE (20°)9.2 mphClear
5:53 PM71.1 °F48.0 °F44 %30.25 in10.0 miNNE (20°)4.6 mphClear
6:53 PM62.1 °F50.0 °F65 %30.27 in10.0 miNorth (350°)4.6 mphClear
7:53 PM60.1 °F48.0 °F64 %30.27 in10.0 miNorth (10°)3.5 mphClear
8:53 PM57.9 °F48.0 °F70 %30.27 in10.0 miNNW (340°)3.5 mphClear
9:53 PM59.0 °F46.9 °F64 %30.28 in10.0 miCalmClear
10:53 PM55.9 °F46.9 °F72 %30.28 in10.0 miCalmClear
11:53 PM52.0 °F48.0 °F86 %30.28 in10.0 miNNW (330°)3.5 mphClear
Hourly data recorded from KPOF, located miles away from Malden, Missouri







STORIES FROM OUR PARTNERS